Charleston, WV

12:27 AM EST on December 14, 2017 (GMT -0500)
Yeager Airport

Weather History for KCRW - April, 2013

Change the Weather History Date:

Sunday, April 7, 2013

  Actual Average Record
Temperature  
Mean Temperature 66 °F 54 °F  
Max Temperature 76 °F 65 °F 92 °F (1929)
Min Temperature 56 °F 42 °F 19 °F (1982)
Degree Days  
Heating Degree Days 0 12  
Month to date heating degree days 125 91  
Since 1 July heating degree days 4285 4145  
Cooling Degree Days 1 1  
Month to date cooling degree days 1 6  
Year to date cooling degree days 1 11  
Growing Degree Days 15 (Base 50)    
Moisture  
Dew Point 36 °F    
Average Humidity 40    
Maximum Humidity 51    
Minimum Humidity 29    
Precipitation  
Precipitation 0.00 in 0.11 in 1.46 in (1972)
Month to date precipitation 0.16 0.73  
Year to date precipitation 9.36 10.83  
Snow  
Snow 0.00 in - - ()
Month to date snowfall 0.0  
Since 1 September snowfall 25.3  
Snow Depth 0.00 in    
Sea Level Pressure  
Sea Level Pressure 29.99 in    
Wind  
Wind Speed 10 mph (SSW)    
Max Wind Speed 25 mph    
Max Gust Speed 37 mph    
Visibility 10 miles    
Events      
T = Trace of Precipitation, MM = Missing Value Source: NWS Daily Summary

Daily Weather History Graph

Daily Weather History Graph

Search for Another Location

Airport or City:

Trip Planner

Search our weather history database for the weather conditions in past years. The results will help you decide how hot, cold, wet, or windy it might be!

Date:

Astronomy

Apr. 07, 2013 Rise Set
Actual Time 7:01 AM EDT 7:55 PM EDT
Civil Twilight 6:34 AM EDT 8:22 PM EDT
Nautical Twilight 6:03 AM EDT 8:54 PM EDT
Astronomical Twilight 5:30 AM EDT 9:27 PM EDT
Moon 5:16 AM EDT (4/7) 5:27 PM EDT (4/7)
Length of Visible Light 13h 47m
Length of Day
12h 53m
Waning Crescent, 8% of the Moon is Illuminated
Apr 7
Waning Crescent
Apr 10
New
Apr 18
First Quarter
Apr 25
Full
May 2
Last Quarter

Hourly Weather History & Observations

Time (EDT) Temp. Dew Point Humidity Pressure Visibility Wind Dir Wind Speed Gust Speed Precip Events Conditions
12:54 AM 61.0 °F 30.9 °F 32% 30.03 in 10.0 mi South 10.4 mph - N/A   Clear
1:54 AM 60.1 °F 30.9 °F 33% 30.04 in 10.0 mi South 10.4 mph - N/A   Clear
2:54 AM 59.0 °F 30.9 °F 35% 30.02 in 10.0 mi SSE 11.5 mph 16.1 mph N/A   Clear
3:54 AM 59.0 °F 30.9 °F 35% 30.00 in 10.0 mi SSE 10.4 mph - N/A   Clear
4:54 AM 57.9 °F 30.9 °F 36% 29.99 in 10.0 mi South 11.5 mph - N/A   Clear
5:54 AM 57.0 °F 30.9 °F 37% 29.99 in 10.0 mi SSE 8.1 mph - N/A   Clear
6:54 AM 57.0 °F 30.9 °F 37% 30.00 in 10.0 mi South 8.1 mph - N/A   Clear
7:54 AM 59.0 °F 32.0 °F 36% 30.01 in 10.0 mi South 9.2 mph - N/A   Partly Cloudy
8:54 AM 62.1 °F 32.0 °F 32% 30.02 in 10.0 mi South 10.4 mph 19.6 mph N/A   Scattered Clouds
9:54 AM 64.9 °F 34.0 °F 32% 30.02 in 10.0 mi SW 13.8 mph 25.3 mph N/A   Scattered Clouds
10:54 AM 68.0 °F 35.1 °F 30% 30.01 in 10.0 mi SW 11.5 mph 26.5 mph N/A   Scattered Clouds
11:54 AM 69.1 °F 37.0 °F 31% 30.01 in 10.0 mi WSW 17.3 mph 28.8 mph N/A   Mostly Cloudy
12:54 PM 70.0 °F 37.9 °F 31% 30.00 in 10.0 mi WSW 21.9 mph 29.9 mph N/A   Mostly Cloudy
1:54 PM 73.0 °F 39.0 °F 29% 29.98 in 10.0 mi SW 18.4 mph 29.9 mph N/A   Mostly Cloudy
2:54 PM 73.0 °F 39.0 °F 29% 29.96 in 10.0 mi WSW 16.1 mph - N/A   Mostly Cloudy
3:54 PM 73.9 °F 39.0 °F 28% 29.95 in 10.0 mi SW 18.4 mph 25.3 mph N/A   Mostly Cloudy
4:54 PM 73.9 °F 39.0 °F 28% 29.95 in 10.0 mi West 15.0 mph 24.2 mph N/A   Mostly Cloudy
5:54 PM 73.0 °F 39.0 °F 29% 29.96 in 10.0 mi West 8.1 mph 20.7 mph N/A   Mostly Cloudy
6:54 PM 72.0 °F 39.0 °F 30% 29.97 in 10.0 mi WSW 11.5 mph - N/A   Mostly Cloudy
7:54 PM 71.1 °F 39.0 °F 31% 29.97 in 10.0 mi West 3.5 mph - N/A   Mostly Cloudy
8:54 PM 68.0 °F 39.9 °F 36% 29.98 in 10.0 mi Calm Calm - N/A   Mostly Cloudy
9:54 PM 64.9 °F 41.0 °F 42% 29.99 in 10.0 mi NW 3.5 mph - N/A   Mostly Cloudy
10:54 PM 63.0 °F 41.0 °F 45% 30.00 in 10.0 mi Calm Calm - N/A   Scattered Clouds
11:54 PM 60.1 °F 42.1 °F 51% 30.00 in 10.0 mi Calm Calm - N/A   Scattered Clouds